Time,TemperatureF,DewpointF,PressureIn,WindDirection,WindDirectionDegrees,WindSpeedMPH,WindSpeedGustMPH,Humidity,HourlyPrecipIn,Conditions,Clouds,dailyrainin,SoftwareType,DateUTC
2013-02-08 00:00:00,55.9,54.5,29.79,East,84,13.0,26.0,95,0.02,,---,0.00,VWS V14.01,2013-02-08 05:00:00,
2013-02-08 00:01:00,55.9,54.5,29.79,ENE,58,17.0,26.0,95,0.02,,---,0.00,VWS V14.01,2013-02-08 05:01:00,
2013-02-08 00:06:00,55.8,54.4,29.78,ESE,108,19.0,32.0,95,0.03,,---,0.01,VWS V14.01,2013-02-08 05:06:00,
2013-02-08 00:11:00,55.8,54.4,29.78,NE,53,17.0,32.0,95,0.05,,---,0.03,VWS V14.01,2013-02-08 05:11:00,
2013-02-08 00:16:00,55.7,54.3,29.77,ENE,63,18.0,32.0,95,0.06,,---,0.04,VWS V14.01,2013-02-08 05:16:00,
2013-02-08 00:21:00,55.8,54.4,29.77,East,98,17.0,32.0,95,0.06,,---,0.04,VWS V14.01,2013-02-08 05:21:00,
2013-02-08 00:26:00,55.7,54.3,29.76,ENE,77,15.0,32.0,95,0.07,,---,0.05,VWS V14.01,2013-02-08 05:26:00,
2013-02-08 00:31:00,55.6,54.2,29.76,East,84,26.0,28.0,95,0.07,,---,0.06,VWS V14.01,2013-02-08 05:31:00,
2013-02-08 00:36:00,55.5,54.4,29.75,East,91,22.0,31.0,96,0.10,,---,0.09,VWS V14.01,2013-02-08 05:36:00,
2013-02-08 00:42:00,55.3,54.2,29.74,East,91,15.0,31.0,96,0.12,,---,0.11,VWS V14.01,2013-02-08 05:42:00,
2013-02-08 00:47:00,55.1,53.7,29.73,East,90,15.0,31.0,95,0.14,,---,0.13,VWS V14.01,2013-02-08 05:47:00,
2013-02-08 00:52:00,54.9,53.8,29.72,East,96,16.0,31.0,96,0.16,,---,0.15,VWS V14.01,2013-02-08 05:52:00,
2013-02-08 00:57:00,54.6,53.5,29.72,East,89,21.0,31.0,96,0.18,,---,0.17,VWS V14.01,2013-02-08 05:57:00,
2013-02-08 01:02:00,54.6,53.5,29.71,ENE,77,21.0,23.0,96,0.19,,---,0.19,VWS V14.01,2013-02-08 06:02:00,
2013-02-08 01:07:00,54.8,53.7,29.71,ENE,69,19.0,23.0,96,0.21,,---,0.21,VWS V14.01,2013-02-08 06:07:00,
2013-02-08 01:12:00,54.9,53.8,29.70,East,82,14.0,23.0,96,0.22,,---,0.22,VWS V14.01,2013-02-08 06:12:00,
2013-02-08 01:17:00,54.7,53.6,29.70,East,91,19.0,23.0,96,0.24,,---,0.24,VWS V14.01,2013-02-08 06:17:00,
2013-02-08 01:22:00,54.7,53.6,29.69,ENE,70,13.0,23.0,96,0.26,,---,0.26,VWS V14.01,2013-02-08 06:22:00,
2013-02-08 01:27:00,54.7,53.6,29.69,ENE,76,15.0,23.0,96,0.27,,---,0.27,VWS V14.01,2013-02-08 06:27:00,
2013-02-08 01:32:00,54.7,53.6,29.68,East,98,16.0,19.0,96,0.22,,---,0.27,VWS V14.01,2013-02-08 06:32:00,
2013-02-08 01:37:00,54.7,53.6,29.67,ESE,105,19.0,26.0,96,0.24,,---,0.29,VWS V14.01,2013-02-08 06:37:00,
2013-02-08 01:42:00,54.6,53.5,29.67,ESE,108,17.0,26.0,96,0.25,,---,0.30,VWS V14.01,2013-02-08 06:42:00,
2013-02-08 01:47:00,54.4,53.3,29.66,East,96,16.0,26.0,96,0.27,,---,0.32,VWS V14.01,2013-02-08 06:47:00,
2013-02-08 01:52:00,54.2,53.1,29.65,ESE,115,11.0,26.0,96,0.29,,---,0.34,VWS V14.01,2013-02-08 06:52:00,
2013-02-08 01:57:00,54.2,53.1,29.66,ENE,75,13.0,26.0,96,0.31,,---,0.36,VWS V14.01,2013-02-08 06:57:00,
2013-02-08 02:02:00,54.1,53.0,29.64,ENE,60,10.0,19.0,96,0.21,,---,0.38,VWS V14.01,2013-02-08 07:02:00,
2013-02-08 02:07:00,54.1,53.0,29.64,East,88,14.0,20.0,96,0.22,,---,0.39,VWS V14.01,2013-02-08 07:07:00,
2013-02-08 02:12:00,54.2,53.4,29.63,ESE,107,14.0,26.0,97,0.24,,---,0.41,VWS V14.01,2013-02-08 07:12:00,
2013-02-08 02:17:00,54.1,53.3,29.61,East,88,18.0,26.0,97,0.26,,---,0.43,VWS V14.01,2013-02-08 07:17:00,
2013-02-08 02:23:00,53.9,53.1,29.61,ESE,117,14.0,26.0,97,0.28,,---,0.45,VWS V14.01,2013-02-08 07:23:00,
2013-02-08 02:28:00,53.9,53.1,29.59,ENE,61,11.0,26.0,97,0.28,,---,0.45,VWS V14.01,2013-02-08 07:28:00,
2013-02-08 02:33:00,53.9,53.1,29.59,East,83,12.0,19.0,97,0.18,,---,0.45,VWS V14.01,2013-02-08 07:33:00,
2013-02-08 02:38:00,54.1,53.3,29.59,East,87,17.0,19.0,97,0.19,,---,0.46,VWS V14.01,2013-02-08 07:38:00,
2013-02-08 02:43:00,54.1,53.3,29.59,East,96,11.0,19.0,97,0.19,,---,0.46,VWS V14.01,2013-02-08 07:43:00,
2013-02-08 02:48:00,54.6,53.8,29.59,East,89,21.0,21.0,97,0.19,,---,0.46,VWS V14.01,2013-02-08 07:48:00,
2013-02-08 02:53:00,54.4,53.6,29.58,ENE,78,10.0,21.0,97,0.19,,---,0.46,VWS V14.01,2013-02-08 07:53:00,
2013-02-08 02:58:00,54.4,53.6,29.57,East,83,16.0,16.0,97,0.10,,---,0.46,VWS V14.01,2013-02-08 07:58:00,
2013-02-08 03:03:00,54.7,53.9,29.57,East,94,11.0,17.0,97,0.10,,---,0.46,VWS V14.01,2013-02-08 08:03:00,
2013-02-08 03:08:00,54.7,53.9,29.56,East,89,12.0,17.0,97,0.11,,---,0.47,VWS V14.01,2013-02-08 08:08:00,
2013-02-08 03:13:00,54.7,53.9,29.55,East,96,10.0,17.0,97,0.11,,---,0.47,VWS V14.01,2013-02-08 08:13:00,
2013-02-08 03:18:00,54.7,53.9,29.55,East,96,8.0,17.0,97,0.11,,---,0.47,VWS V14.01,2013-02-08 08:18:00,
2013-02-08 03:23:00,55.0,54.2,29.54,East,84,13.0,17.0,97,0.11,,---,0.47,VWS V14.01,2013-02-08 08:23:00,
2013-02-08 03:28:00,55.3,54.8,29.53,East,90,7.0,7.0,98,0.02,,---,0.47,VWS V14.01,2013-02-08 08:28:00,
2013-02-08 03:33:00,55.5,55.0,29.53,ENE,74,5.0,10.0,98,0.02,,---,0.47,VWS V14.01,2013-02-08 08:33:00,
2013-02-08 03:38:00,55.5,54.7,29.53,NE,51,3.0,10.0,97,0.02,,---,0.47,VWS V14.01,2013-02-08 08:38:00,
2013-02-08 03:43:00,55.3,54.5,29.53,North,9,4.0,10.0,97,0.02,,---,0.47,VWS V14.01,2013-02-08 08:43:00,
2013-02-08 03:49:00,56.0,55.5,29.53,North,351,10.0,10.0,98,0.02,,---,0.47,VWS V14.01,2013-02-08 08:49:00,
2013-02-08 03:54:00,55.8,55.0,29.53,NW,323,21.0,33.0,97,0.02,,---,0.47,VWS V14.01,2013-02-08 08:54:00,
2013-02-08 03:59:00,54.6,53.8,29.54,NNE,14,30.0,33.0,97,0.04,,---,0.50,VWS V14.01,2013-02-08 08:59:00,
2013-02-08 04:04:00,54.0,53.2,29.53,NNW,339,21.0,36.0,97,0.04,,---,0.50,VWS V14.01,2013-02-08 09:04:00,
2013-02-08 04:09:00,53.8,53.0,29.53,NNW,344,23.0,36.0,97,0.04,,---,0.50,VWS V14.01,2013-02-08 09:09:00,
2013-02-08 04:14:00,53.5,52.7,29.53,North,355,25.0,36.0,97,0.04,,---,0.50,VWS V14.01,2013-02-08 09:14:00,
2013-02-08 04:19:00,53.2,52.4,29.54,North,349,29.0,37.0,97,0.04,,---,0.50,VWS V14.01,2013-02-08 09:19:00,
2013-02-08 04:24:00,53.0,52.2,29.54,NNW,345,30.0,37.0,97,0.04,,---,0.50,VWS V14.01,2013-02-08 09:24:00,
2013-02-08 04:29:00,52.7,51.9,29.53,North,351,26.0,34.0,97,0.04,,---,0.51,VWS V14.01,2013-02-08 09:29:00,
2013-02-08 04:34:00,52.6,51.8,29.53,North,351,30.0,34.0,97,0.04,,---,0.51,VWS V14.01,2013-02-08 09:34:00,
2013-02-08 04:39:00,52.5,51.4,29.54,North,355,22.0,34.0,96,0.04,,---,0.51,VWS V14.01,2013-02-08 09:39:00,
2013-02-08 04:44:00,52.4,51.3,29.54,North,355,32.0,34.0,96,0.04,,---,0.51,VWS V14.01,2013-02-08 09:44:00,
2013-02-08 04:49:00,52.3,51.2,29.54,North,5,28.0,34.0,96,0.04,,---,0.51,VWS V14.01,2013-02-08 09:49:00,
2013-02-08 04:54:00,52.3,51.2,29.55,NNW,347,26.0,34.0,96,0.04,,---,0.51,VWS V14.01,2013-02-08 09:54:00,
2013-02-08 04:59:00,52.2,51.1,29.56,NW,312,23.0,28.0,96,0.01,,---,0.51,VWS V14.01,2013-02-08 09:59:00,
2013-02-08 05:04:00,52.1,51.0,29.56,North,5,32.0,33.0,96,0.01,,---,0.51,VWS V14.01,2013-02-08 10:04:00,
2013-02-08 05:09:00,51.9,50.5,29.56,NNW,346,19.0,33.0,95,0.01,,---,0.51,VWS V14.01,2013-02-08 10:09:00,
2013-02-08 05:14:00,51.7,50.3,29.56,North,355,34.0,36.0,95,0.01,,---,0.51,VWS V14.01,2013-02-08 10:14:00,
2013-02-08 05:19:00,51.5,50.1,29.57,NNW,328,33.0,36.0,95,0.01,,---,0.51,VWS V14.01,2013-02-08 10:19:00,
2013-02-08 05:24:00,51.1,49.7,29.57,North,351,32.0,38.0,95,0.01,,---,0.51,VWS V14.01,2013-02-08 10:24:00,
2013-02-08 05:29:00,50.9,49.5,29.58,NNW,342,28.0,31.0,95,0.00,,---,0.51,VWS V14.01,2013-02-08 10:29:00,
2013-02-08 05:34:00,50.4,48.7,29.59,NNW,348,30.0,40.0,94,0.00,,---,0.51,VWS V14.01,2013-02-08 10:34:00,
2013-02-08 05:39:00,49.9,48.5,29.59,NNW,348,25.0,40.0,95,0.00,,---,0.51,VWS V14.01,2013-02-08 10:39:00,
2013-02-08 05:44:00,49.6,48.0,29.59,NNW,347,28.0,40.0,94,0.00,,---,0.51,VWS V14.01,2013-02-08 10:44:00,
2013-02-08 05:49:00,49.4,48.0,29.60,NNW,348,29.0,40.0,95,0.00,,---,0.51,VWS V14.01,2013-02-08 10:49:00,
2013-02-08 05:54:00,49.2,47.5,29.61,North,349,23.0,40.0,94,0.00,,---,0.51,VWS V14.01,2013-02-08 10:54:00,
2013-02-08 05:59:00,49.0,47.3,29.61,NNW,347,26.0,32.0,94,0.00,,---,0.51,VWS V14.01,2013-02-08 10:59:00,
2013-02-08 06:04:00,48.9,47.2,29.62,North,360,25.0,37.0,94,0.00,,---,0.51,VWS V14.01,2013-02-08 11:04:00,
2013-02-08 06:09:00,48.8,47.2,29.63,North,360,30.0,37.0,94,0.00,,---,0.51,VWS V14.01,2013-02-08 11:09:00,
2013-02-08 06:14:00,48.7,47.0,29.63,North,350,19.0,39.0,94,0.00,,---,0.51,VWS V14.01,2013-02-08 11:14:00,
2013-02-08 06:19:00,48.7,46.8,29.63,North,355,25.0,39.0,93,0.00,,---,0.51,VWS V14.01,2013-02-08 11:19:00,
2013-02-08 06:24:00,48.7,46.8,29.63,North,351,26.0,39.0,93,0.00,,---,0.51,VWS V14.01,2013-02-08 11:24:00,
2013-02-08 06:29:00,48.6,46.7,29.64,NNW,337,29.0,33.0,93,0.00,,---,0.51,VWS V14.01,2013-02-08 11:29:00,
2013-02-08 06:34:00,48.5,46.6,29.65,NNW,336,25.0,34.0,93,0.00,,---,0.51,VWS V14.01,2013-02-08 11:34:00,
2013-02-08 06:39:00,48.3,46.4,29.66,NNW,342,34.0,34.0,93,0.00,,---,0.51,VWS V14.01,2013-02-08 11:39:00,
2013-02-08 06:45:00,48.2,46.3,29.66,NNW,344,29.0,34.0,93,0.00,,---,0.51,VWS V14.01,2013-02-08 11:45:00,
2013-02-08 06:50:00,48.2,46.3,29.66,North,355,32.0,38.0,93,0.00,,---,0.51,VWS V14.01,2013-02-08 11:50:00,
2013-02-08 06:55:00,48.1,45.9,29.66,North,355,27.0,38.0,92,0.00,,---,0.51,VWS V14.01,2013-02-08 11:55:00,
2013-02-08 07:00:00,48.1,45.9,29.67,NNW,344,24.0,30.0,92,0.00,,---,0.51,VWS V14.01,2013-02-08 12:00:00,
2013-02-08 07:05:00,48.1,45.9,29.68,NNW,344,31.0,31.0,92,0.00,,---,0.51,VWS V14.01,2013-02-08 12:05:00,
2013-02-08 07:10:00,48.2,46.0,29.68,North,355,22.0,31.0,92,0.00,,---,0.51,VWS V14.01,2013-02-08 12:10:00,
2013-02-08 07:15:00,48.1,45.9,29.69,NNW,340,29.0,33.0,92,0.00,,---,0.51,VWS V14.01,2013-02-08 12:15:00,
2013-02-08 07:20:00,48.1,45.9,29.69,NW,323,32.0,33.0,92,0.00,,---,0.51,VWS V14.01,2013-02-08 12:20:00,
2013-02-08 07:25:00,48.1,45.9,29.69,NNW,347,31.0,35.0,92,0.00,,---,0.51,VWS V14.01,2013-02-08 12:25:00,
2013-02-08 07:30:00,48.2,47.1,29.70,North,360,21.0,31.0,96,0.00,,---,0.51,VWS V14.01,2013-02-08 12:30:00,
2013-02-08 07:35:00,48.2,45.7,29.70,NNW,346,29.0,33.0,91,0.00,,---,0.51,VWS V14.01,2013-02-08 12:35:00,
2013-02-08 07:40:00,48.3,46.1,29.70,NNW,341,27.0,35.0,92,0.00,,---,0.51,VWS V14.01,2013-02-08 12:40:00,
2013-02-08 07:45:00,48.2,45.7,29.70,North,351,26.0,35.0,91,0.00,,---,0.51,VWS V14.01,2013-02-08 12:45:00,
2013-02-08 07:50:00,48.2,45.7,29.70,North,355,24.0,35.0,91,0.00,,---,0.51,VWS V14.01,2013-02-08 12:50:00,
2013-02-08 07:56:00,48.2,46.0,29.70,NNW,348,24.0,36.0,92,0.00,,---,0.51,VWS V14.01,2013-02-08 12:56:00,
2013-02-08 08:01:00,48.2,46.0,29.70,North,355,25.0,31.0,92,0.00,,---,0.51,VWS V14.01,2013-02-08 13:01:00,
2013-02-08 08:06:00,48.3,46.1,29.71,NNW,346,21.0,33.0,92,0.00,,---,0.51,VWS V14.01,2013-02-08 13:06:00,
2013-02-08 08:11:00,48.4,46.2,29.71,NNW,331,21.0,33.0,92,0.00,,---,0.51,VWS V14.01,2013-02-08 13:11:00,
2013-02-08 08:16:00,48.5,46.0,29.72,NNW,346,29.0,33.0,91,0.00,,---,0.51,VWS V14.01,2013-02-08 13:16:00,
2013-02-08 08:21:00,48.6,46.1,29.72,NNW,345,24.0,33.0,91,0.00,,---,0.51,VWS V14.01,2013-02-08 13:21:00,
2013-02-08 08:26:00,48.7,46.2,29.72,NNW,335,26.0,33.0,91,0.00,,---,0.51,VWS V14.01,2013-02-08 13:26:00,
2013-02-08 08:31:00,48.6,46.1,29.73,NNW,348,21.0,31.0,91,0.00,,---,0.51,VWS V14.01,2013-02-08 13:31:00,
2013-02-08 08:36:00,48.7,46.2,29.73,North,360,22.0,31.0,91,0.00,,---,0.51,VWS V14.01,2013-02-08 13:36:00,
2013-02-08 08:41:00,48.7,46.2,29.74,North,350,24.0,31.0,91,0.00,,---,0.51,VWS V14.01,2013-02-08 13:41:00,
2013-02-08 08:46:00,48.8,46.6,29.74,North,355,25.0,31.0,92,0.00,,---,0.51,VWS V14.01,2013-02-08 13:46:00,
2013-02-08 08:51:00,48.8,46.3,29.74,NW,322,21.0,31.0,91,0.00,,---,0.51,VWS V14.01,2013-02-08 13:51:00,
2013-02-08 08:56:00,49.0,46.8,29.75,NNW,344,24.0,31.0,92,0.00,,---,0.51,VWS V14.01,2013-02-08 13:56:00,
2013-02-08 09:01:00,49.1,46.9,29.75,NW,325,26.0,29.0,92,0.00,,---,0.51,VWS V14.01,2013-02-08 14:01:00,
2013-02-08 09:06:00,49.1,46.9,29.75,NNW,346,23.0,29.0,92,0.00,,---,0.51,VWS V14.01,2013-02-08 14:06:00,
2013-02-08 09:11:00,49.2,46.7,29.76,NNW,346,17.0,29.0,91,0.00,,---,0.51,VWS V14.01,2013-02-08 14:11:00,
2013-02-08 09:16:00,49.4,46.9,29.76,NNW,341,28.0,31.0,91,0.00,,---,0.51,VWS V14.01,2013-02-08 14:16:00,
2013-02-08 09:21:00,49.5,47.0,29.76,North,5,18.0,31.0,91,0.00,,---,0.51,VWS V14.01,2013-02-08 14:21:00,
2013-02-08 09:26:00,49.7,47.2,29.76,North,355,20.0,31.0,91,0.00,,---,0.51,VWS V14.01,2013-02-08 14:26:00,
2013-02-08 09:31:00,50.0,47.5,29.77,NNW,348,21.0,26.0,91,0.00,,---,0.51,VWS V14.01,2013-02-08 14:31:00,
2013-02-08 09:36:00,50.2,47.7,29.77,NNW,332,14.0,26.0,91,0.00,,---,0.51,VWS V14.01,2013-02-08 14:36:00,
2013-02-08 09:42:00,50.3,47.5,29.77,NNW,338,17.0,26.0,90,0.00,,---,0.51,VWS V14.01,2013-02-08 14:42:00,
2013-02-08 09:47:00,50.6,47.8,29.77,NNW,348,17.0,26.0,90,0.00,,---,0.51,VWS V14.01,2013-02-08 14:47:00,
2013-02-08 09:52:00,50.9,47.8,29.78,NNW,345,18.0,26.0,89,0.00,,---,0.51,VWS V14.01,2013-02-08 14:52:00,
2013-02-08 09:57:00,51.2,48.1,29.78,NNW,344,12.0,26.0,89,0.00,,---,0.51,VWS V14.01,2013-02-08 14:57:00,
2013-02-08 10:02:00,51.6,48.2,29.78,NNW,328,23.0,23.0,88,0.00,,---,0.51,VWS V14.01,2013-02-08 15:02:00,
2013-02-08 10:07:00,52.0,48.6,29.79,NNW,344,14.0,23.0,88,0.00,,---,0.51,VWS V14.01,2013-02-08 15:07:00,
2013-02-08 10:12:00,52.4,48.7,29.79,NW,325,16.0,23.0,87,0.00,,---,0.51,VWS V14.01,2013-02-08 15:12:00,
2013-02-08 10:17:00,52.7,48.6,29.79,NNW,344,16.0,23.0,86,0.00,,---,0.51,VWS V14.01,2013-02-08 15:17:00,
2013-02-08 10:22:00,53.2,48.8,29.79,North,360,16.0,26.0,85,0.00,,---,0.51,VWS V14.01,2013-02-08 15:22:00,
2013-02-08 10:27:00,53.6,49.2,29.79,NNW,344,20.0,26.0,85,0.00,,---,0.51,VWS V14.01,2013-02-08 15:27:00,
2013-02-08 10:32:00,53.6,48.6,29.79,North,360,22.0,26.0,83,0.00,,---,0.51,VWS V14.01,2013-02-08 15:32:00,
2013-02-08 10:37:00,53.8,48.8,29.80,NNW,344,16.0,26.0,83,0.00,,---,0.51,VWS V14.01,2013-02-08 15:37:00,
2013-02-08 10:42:00,54.1,48.7,29.79,NW,318,21.0,26.0,82,0.00,,---,0.51,VWS V14.01,2013-02-08 15:42:00,
2013-02-08 10:48:00,54.2,48.8,29.79,North,349,15.0,26.0,82,0.00,,---,0.51,VWS V14.01,2013-02-08 15:48:00,
2013-02-08 10:53:00,54.3,48.6,29.79,NNW,335,25.0,26.0,81,0.00,,---,0.51,VWS V14.01,2013-02-08 15:53:00,
2013-02-08 10:58:00,54.2,48.8,29.80,NW,318,24.0,29.0,82,0.00,,---,0.51,VWS V14.01,2013-02-08 15:58:00,
2013-02-08 11:03:00,54.2,48.5,29.80,North,355,20.0,30.0,81,0.00,,---,0.51,VWS V14.01,2013-02-08 16:03:00,
2013-02-08 11:08:00,54.4,48.7,29.80,NW,326,22.0,30.0,81,0.00,,---,0.51,VWS V14.01,2013-02-08 16:08:00,
2013-02-08 11:13:00,54.5,48.5,29.80,NW,316,13.0,30.0,80,0.00,,---,0.51,VWS V14.01,2013-02-08 16:13:00,
2013-02-08 11:18:00,54.4,48.4,29.81,NW,325,22.0,30.0,80,0.00,,---,0.51,VWS V14.01,2013-02-08 16:18:00,
2013-02-08 11:23:00,54.5,48.5,29.81,NNW,340,17.0,30.0,80,0.00,,---,0.51,VWS V14.01,2013-02-08 16:23:00,
2013-02-08 11:28:00,54.9,48.9,29.81,NNW,333,25.0,25.0,80,0.00,,---,0.51,VWS V14.01,2013-02-08 16:28:00,
2013-02-08 11:33:00,54.6,48.2,29.80,NNW,336,24.0,28.0,79,0.00,,---,0.51,VWS V14.01,2013-02-08 16:33:00,
2013-02-08 11:38:00,54.9,48.9,29.80,NW,323,15.0,28.0,80,0.00,,---,0.51,VWS V14.01,2013-02-08 16:38:00,
2013-02-08 11:43:00,55.0,49.0,29.80,NW,321,18.0,28.0,80,0.00,,---,0.51,VWS V14.01,2013-02-08 16:43:00,
2013-02-08 11:48:00,55.2,48.8,29.81,NNW,341,18.0,28.0,79,0.00,,---,0.51,VWS V14.01,2013-02-08 16:48:00,
2013-02-08 11:53:00,55.4,49.0,29.81,NW,319,18.0,28.0,79,0.00,,---,0.51,VWS V14.01,2013-02-08 16:53:00,
2013-02-08 11:58:00,55.4,48.7,29.81,NNW,344,13.0,22.0,78,0.00,,---,0.51,VWS V14.01,2013-02-08 16:58:00,
2013-02-08 12:03:00,55.3,48.6,29.81,NW,320,20.0,29.0,78,0.00,,---,0.51,VWS V14.01,2013-02-08 17:03:00,
2013-02-08 12:08:00,55.4,49.0,29.81,NW,315,22.0,29.0,79,0.00,,---,0.51,VWS V14.01,2013-02-08 17:08:00,
2013-02-08 12:14:00,55.2,48.8,29.81,NNW,342,22.0,32.0,79,0.00,,---,0.51,VWS V14.01,2013-02-08 17:14:00,
2013-02-08 12:19:00,55.1,48.7,29.80,NNW,327,23.0,32.0,79,0.00,,---,0.51,VWS V14.01,2013-02-08 17:19:00,
2013-02-08 12:24:00,54.5,48.1,29.81,NW,320,17.0,32.0,79,0.00,,---,0.51,VWS V14.01,2013-02-08 17:24:00,
2013-02-08 12:29:00,54.2,47.5,29.81,NNW,344,19.0,22.0,78,0.00,,---,0.51,VWS V14.01,2013-02-08 17:29:00,
2013-02-08 12:34:00,54.5,48.1,29.81,NNW,329,19.0,26.0,79,0.00,,---,0.51,VWS V14.01,2013-02-08 17:34:00,
2013-02-08 12:39:00,54.6,47.9,29.81,NW,313,22.0,30.0,78,0.00,,---,0.51,VWS V14.01,2013-02-08 17:39:00,
2013-02-08 12:44:00,54.3,47.9,29.81,NW,315,19.0,31.0,79,0.00,,---,0.51,VWS V14.01,2013-02-08 17:44:00,
2013-02-08 12:49:00,54.4,48.0,29.81,North,355,22.0,31.0,79,0.00,,---,0.51,VWS V14.01,2013-02-08 17:49:00,
2013-02-08 12:54:00,54.5,48.1,29.80,North,355,15.0,31.0,79,0.00,,---,0.51,VWS V14.01,2013-02-08 17:54:00,
2013-02-08 12:59:00,54.6,48.2,29.80,WNW,302,17.0,21.0,79,0.00,,---,0.51,VWS V14.01,2013-02-08 17:59:00,
2013-02-08 13:04:00,54.3,47.6,29.80,North,360,18.0,27.0,78,0.00,,---,0.51,VWS V14.01,2013-02-08 18:04:00,
2013-02-08 13:09:00,54.6,47.9,29.80,NNW,342,16.0,27.0,78,0.00,,---,0.51,VWS V14.01,2013-02-08 18:09:00,
2013-02-08 13:15:00,54.9,48.2,29.80,NNW,331,16.0,27.0,78,0.00,,---,0.51,VWS V14.01,2013-02-08 18:15:00,
2013-02-08 13:20:00,55.0,48.3,29.80,NNW,332,20.0,29.0,78,0.00,,---,0.51,VWS V14.01,2013-02-08 18:20:00,
2013-02-08 13:25:00,55.0,48.3,29.81,NNW,336,22.0,29.0,78,0.00,,---,0.51,VWS V14.01,2013-02-08 18:25:00,
2013-02-08 13:30:00,54.6,47.5,29.81,NW,319,15.0,22.0,77,0.00,,---,0.51,VWS V14.01,2013-02-08 18:30:00,
2013-02-08 13:35:00,55.1,48.0,29.81,NNW,333,18.0,23.0,77,0.00,,---,0.51,VWS V14.01,2013-02-08 18:35:00,
2013-02-08 13:40:00,55.1,48.0,29.81,NNW,333,24.0,27.0,77,0.00,,---,0.51,VWS V14.01,2013-02-08 18:40:00,
2013-02-08 13:45:00,54.8,47.4,29.81,NNW,329,20.0,30.0,76,0.00,,---,0.51,VWS V14.01,2013-02-08 18:45:00,
2013-02-08 13:50:00,54.6,47.2,29.81,NNW,330,17.0,30.0,76,0.00,,---,0.51,VWS V14.01,2013-02-08 18:50:00,
2013-02-08 13:55:00,54.7,48.0,29.81,NNW,348,13.0,30.0,78,0.00,,---,0.51,VWS V14.01,2013-02-08 18:55:00,
2013-02-08 14:00:00,54.6,47.5,29.81,NNW,340,12.0,16.0,77,0.00,,---,0.51,VWS V14.01,2013-02-08 19:00:00,
2013-02-08 14:06:00,54.9,48.2,29.81,NW,324,20.0,21.0,78,0.00,,---,0.51,VWS V14.01,2013-02-08 19:06:00,
2013-02-08 14:11:00,54.9,47.5,29.81,WNW,302,15.0,22.0,76,0.00,,---,0.51,VWS V14.01,2013-02-08 19:11:00,
2013-02-08 14:16:00,55.0,47.6,29.82,NW,306,15.0,22.0,76,0.00,,---,0.51,VWS V14.01,2013-02-08 19:16:00,
2013-02-08 14:21:00,55.5,47.7,29.82,NW,323,23.0,24.0,75,0.00,,---,0.51,VWS V14.01,2013-02-08 19:21:00,
2013-02-08 14:26:00,55.7,47.9,29.82,NW,306,22.0,24.0,75,0.00,,---,0.51,VWS V14.01,2013-02-08 19:26:00,
2013-02-08 14:31:00,56.0,48.2,29.82,North,350,13.0,19.0,75,0.00,,---,0.51,VWS V14.01,2013-02-08 19:31:00,
2013-02-08 14:36:00,56.2,48.0,29.82,NW,313,24.0,24.0,74,0.00,,---,0.51,VWS V14.01,2013-02-08 19:36:00,
2013-02-08 14:41:00,56.2,47.7,29.82,NNW,330,20.0,26.0,73,0.00,,---,0.51,VWS V14.01,2013-02-08 19:41:00,
2013-02-08 14:46:00,56.1,47.6,29.82,NW,324,16.0,26.0,73,0.00,,---,0.51,VWS V14.01,2013-02-08 19:46:00,
2013-02-08 14:51:00,56.3,48.8,29.82,NW,321,23.0,26.0,76,0.00,,---,0.51,VWS V14.01,2013-02-08 19:51:00,
2013-02-08 14:56:00,56.0,47.5,29.82,NW,307,15.0,27.0,73,0.00,,---,0.51,VWS V14.01,2013-02-08 19:56:00,
2013-02-08 15:01:00,56.2,48.0,29.82,NW,325,16.0,23.0,74,0.00,,---,0.51,VWS V14.01,2013-02-08 20:01:00,
2013-02-08 15:06:00,56.5,48.0,29.82,NW,322,20.0,23.0,73,0.00,,---,0.51,VWS V14.01,2013-02-08 20:06:00,
2013-02-08 15:12:00,56.5,47.6,29.82,NW,313,20.0,26.0,72,0.00,,---,0.51,VWS V14.01,2013-02-08 20:12:00,
2013-02-08 15:17:00,56.5,47.6,29.82,WNW,302,20.0,26.0,72,0.00,,---,0.51,VWS V14.01,2013-02-08 20:17:00,
2013-02-08 15:22:00,56.4,47.5,29.82,NNW,329,19.0,26.0,72,0.00,,---,0.51,VWS V14.01,2013-02-08 20:22:00,
2013-02-08 15:27:00,56.7,48.2,29.82,NW,323,19.0,26.0,73,0.00,,---,0.51,VWS V14.01,2013-02-08 20:27:00,
2013-02-08 15:32:00,56.7,47.8,29.82,NW,319,17.0,25.0,72,0.00,,---,0.51,VWS V14.01,2013-02-08 20:32:00,
2013-02-08 15:37:00,56.9,48.0,29.82,NW,320,13.0,25.0,72,0.00,,---,0.51,VWS V14.01,2013-02-08 20:37:00,
2013-02-08 15:42:00,57.1,48.2,29.82,NW,326,22.0,25.0,72,0.00,,---,0.51,VWS V14.01,2013-02-08 20:42:00,
2013-02-08 15:47:00,57.0,47.7,29.82,NW,321,16.0,25.0,71,0.00,,---,0.51,VWS V14.01,2013-02-08 20:47:00,
2013-02-08 15:52:00,57.2,48.3,29.82,NW,311,17.0,25.0,72,0.00,,---,0.51,VWS V14.01,2013-02-08 20:52:00,
2013-02-08 15:57:00,57.1,47.8,29.82,NNW,335,11.0,25.0,71,0.00,,---,0.51,VWS V14.01,2013-02-08 20:57:00,
2013-02-08 16:02:00,57.2,47.9,29.82,NW,312,10.0,18.0,71,0.00,,---,0.51,VWS V14.01,2013-02-08 21:02:00,
2013-02-08 16:07:00,57.4,48.1,29.82,NW,304,13.0,18.0,71,0.00,,---,0.51,VWS V14.01,2013-02-08 21:07:00,
2013-02-08 16:12:00,57.5,48.2,29.82,WNW,298,13.0,18.0,71,0.00,,---,0.51,VWS V14.01,2013-02-08 21:12:00,
2013-02-08 16:17:00,57.7,48.0,29.82,NW,305,12.0,19.0,70,0.00,,---,0.51,VWS V14.01,2013-02-08 21:17:00,
2013-02-08 16:23:00,57.9,48.6,29.82,WNW,294,15.0,19.0,71,0.00,,---,0.51,VWS V14.01,2013-02-08 21:23:00,
2013-02-08 16:28:00,58.0,48.7,29.82,WNW,290,13.0,19.0,71,0.00,,---,0.51,VWS V14.01,2013-02-08 21:28:00,
2013-02-08 16:33:00,58.0,48.3,29.83,NW,313,13.0,17.0,70,0.00,,---,0.51,VWS V14.01,2013-02-08 21:33:00,
2013-02-08 16:38:00,58.1,48.4,29.83,NW,305,15.0,18.0,70,0.00,,---,0.51,VWS V14.01,2013-02-08 21:38:00,
2013-02-08 16:43:00,58.2,48.5,29.83,WNW,301,16.0,18.0,70,0.00,,---,0.51,VWS V14.01,2013-02-08 21:43:00,
2013-02-08 16:48:00,58.0,48.7,29.83,WNW,300,14.0,18.0,71,0.00,,---,0.51,VWS V14.01,2013-02-08 21:48:00,
2013-02-08 16:53:00,58.1,48.4,29.83,WNW,300,16.0,19.0,70,0.00,,---,0.51,VWS V14.01,2013-02-08 21:53:00,
2013-02-08 16:58:00,58.2,48.5,29.83,NW,307,15.0,18.0,70,0.00,,---,0.51,VWS V14.01,2013-02-08 21:58:00,
2013-02-08 17:03:00,58.1,48.4,29.83,NW,306,14.0,20.0,70,0.00,,---,0.51,VWS V14.01,2013-02-08 22:03:00,
2013-02-08 17:08:00,58.0,48.7,29.84,NW,311,12.0,20.0,71,0.00,,---,0.51,VWS V14.01,2013-02-08 22:08:00,
2013-02-08 17:13:00,58.0,48.7,29.84,NW,312,11.0,20.0,71,0.00,,---,0.51,VWS V14.01,2013-02-08 22:13:00,
2013-02-08 17:18:00,58.0,48.7,29.84,NW,325,9.0,20.0,71,0.00,,---,0.51,VWS V14.01,2013-02-08 22:18:00,
2013-02-08 17:23:00,57.9,48.6,29.84,NW,310,10.0,20.0,71,0.00,,---,0.51,VWS V14.01,2013-02-08 22:23:00,
2013-02-08 17:28:00,57.7,48.8,29.85,NW,317,11.0,11.0,72,0.00,,---,0.51,VWS V14.01,2013-02-08 22:28:00,
2013-02-08 17:33:00,57.4,48.5,29.85,NW,311,7.0,13.0,72,0.00,,---,0.51,VWS V14.01,2013-02-08 22:33:00,
2013-02-08 17:38:00,57.3,48.7,29.86,NW,310,9.0,13.0,73,0.00,,---,0.51,VWS V14.01,2013-02-08 22:38:00,
2013-02-08 17:43:00,57.1,48.5,29.86,NW,309,9.0,16.0,73,0.00,,---,0.51,VWS V14.01,2013-02-08 22:43:00,
2013-02-08 17:48:00,57.0,48.4,29.86,NW,309,10.0,16.0,73,0.00,,---,0.51,VWS V14.01,2013-02-08 22:48:00,
2013-02-08 17:53:00,56.9,48.7,29.86,NW,306,6.0,16.0,74,0.00,,---,0.51,VWS V14.01,2013-02-08 22:53:00,
2013-02-08 17:58:00,56.9,48.7,29.86,WNW,300,7.0,10.0,74,0.00,,---,0.51,VWS V14.01,2013-02-08 22:58:00,
2013-02-08 18:04:00,56.9,48.7,29.87,WNW,300,9.0,10.0,74,0.00,,---,0.51,VWS V14.01,2013-02-08 23:04:00,
2013-02-08 18:09:00,56.8,49.0,29.87,WNW,298,7.0,10.0,75,0.00,,---,0.51,VWS V14.01,2013-02-08 23:09:00,
2013-02-08 18:14:00,56.6,48.8,29.87,WNW,298,6.0,10.0,75,0.00,,---,0.51,VWS V14.01,2013-02-08 23:14:00,
2013-02-08 18:19:00,56.3,48.8,29.87,WNW,292,7.0,10.0,76,0.00,,---,0.51,VWS V14.01,2013-02-08 23:19:00,
2013-02-08 18:24:00,56.0,48.5,29.87,WNW,286,5.0,10.0,76,0.00,,---,0.51,VWS V14.01,2013-02-08 23:24:00,
2013-02-08 18:29:00,55.7,48.6,29.88,WNW,289,6.0,7.0,77,0.00,,---,0.51,VWS V14.01,2013-02-08 23:29:00,
2013-02-08 18:34:00,55.4,48.7,29.88,WNW,290,6.0,7.0,78,0.00,,---,0.51,VWS V14.01,2013-02-08 23:34:00,
2013-02-08 18:39:00,55.3,48.6,29.88,WNW,288,6.0,7.0,78,0.00,,---,0.51,VWS V14.01,2013-02-08 23:39:00,
2013-02-08 18:44:00,55.1,48.7,29.88,WNW,284,6.0,7.0,79,0.00,,---,0.51,VWS V14.01,2013-02-08 23:44:00,
2013-02-08 18:49:00,54.9,48.5,29.88,West,281,6.0,7.0,79,0.00,,---,0.51,VWS V14.01,2013-02-08 23:49:00,
2013-02-08 18:54:00,54.7,48.7,29.89,West,281,6.0,7.0,80,0.00,,---,0.51,VWS V14.01,2013-02-08 23:54:00,
2013-02-08 19:00:00,54.5,48.8,29.89,WNW,283,4.0,5.0,81,0.00,,---,0.51,VWS V14.01,2013-02-09 00:00:00,
2013-02-08 19:05:00,54.2,48.5,29.89,WNW,283,3.0,5.0,81,0.00,,---,0.51,VWS V14.01,2013-02-09 00:05:00,
2013-02-08 19:10:00,53.7,48.7,29.89,West,280,6.0,7.0,83,0.00,,---,0.51,VWS V14.01,2013-02-09 00:10:00,
2013-02-08 19:15:00,53.9,48.9,29.89,WNW,291,7.0,9.0,83,0.00,,---,0.51,VWS V14.01,2013-02-09 00:15:00,
2013-02-08 19:20:00,54.2,48.8,29.90,WNW,299,7.0,10.0,82,0.00,,---,0.51,VWS V14.01,2013-02-09 00:20:00,
2013-02-08 19:25:00,54.5,48.8,29.90,WNW,301,7.0,10.0,81,0.00,,---,0.51,VWS V14.01,2013-02-09 00:25:00,
2013-02-08 19:30:00,54.6,48.9,29.90,WNW,285,7.0,9.0,81,0.00,,---,0.51,VWS V14.01,2013-02-09 00:30:00,
2013-02-08 19:35:00,54.4,48.7,29.90,WNW,284,6.0,9.0,81,0.00,,---,0.51,VWS V14.01,2013-02-09 00:35:00,
2013-02-08 19:40:00,54.3,48.9,29.91,WNW,282,7.0,9.0,82,0.00,,---,0.51,VWS V14.01,2013-02-09 00:40:00,
2013-02-08 19:45:00,54.0,48.6,29.91,West,279,7.0,9.0,82,0.00,,---,0.51,VWS V14.01,2013-02-09 00:45:00,
2013-02-08 19:50:00,53.8,48.8,29.91,West,277,6.0,9.0,83,0.00,,---,0.51,VWS V14.01,2013-02-09 00:50:00,
2013-02-08 19:55:00,53.7,49.0,29.91,West,277,6.0,9.0,84,0.00,,---,0.51,VWS V14.01,2013-02-09 00:55:00,
2013-02-08 20:00:00,53.5,49.1,29.91,West,271,5.0,6.0,85,0.00,,---,0.51,VWS V14.01,2013-02-09 01:00:00,
2013-02-08 20:06:00,53.3,49.2,29.91,West,270,6.0,6.0,86,0.00,,---,0.51,VWS V14.01,2013-02-09 01:06:00,
2013-02-08 20:11:00,53.2,49.1,29.91,West,272,5.0,6.0,86,0.00,,---,0.51,VWS V14.01,2013-02-09 01:11:00,
2013-02-08 20:16:00,53.1,49.3,29.91,West,275,5.0,6.0,87,0.00,,---,0.51,VWS V14.01,2013-02-09 01:16:00,
2013-02-08 20:21:00,53.0,49.2,29.91,West,279,5.0,6.0,87,0.00,,---,0.51,VWS V14.01,2013-02-09 01:21:00,
2013-02-08 20:26:00,52.9,49.1,29.91,West,278,4.0,6.0,87,0.00,,---,0.51,VWS V14.01,2013-02-09 01:26:00,
2013-02-08 20:31:00,52.9,49.1,29.92,West,278,5.0,5.0,87,0.00,,---,0.51,VWS V14.01,2013-02-09 01:31:00,
2013-02-08 20:36:00,52.6,48.8,29.92,West,278,4.0,5.0,87,0.00,,---,0.51,VWS V14.01,2013-02-09 01:36:00,
2013-02-08 20:41:00,52.3,48.5,29.92,West,279,5.0,5.0,87,0.00,,---,0.51,VWS V14.01,2013-02-09 01:41:00,
2013-02-08 20:46:00,52.2,48.8,29.92,West,279,5.0,6.0,88,0.00,,---,0.51,VWS V14.01,2013-02-09 01:46:00,
2013-02-08 20:51:00,52.1,48.7,29.92,West,280,5.0,6.0,88,0.00,,---,0.51,VWS V14.01,2013-02-09 01:51:00,
2013-02-08 20:56:00,52.1,48.7,29.92,West,281,5.0,6.0,88,0.00,,---,0.51,VWS V14.01,2013-02-09 01:56:00,
2013-02-08 21:01:00,52.1,48.7,29.93,West,280,6.0,6.0,88,0.00,,---,0.51,VWS V14.01,2013-02-09 02:01:00,
2013-02-08 21:07:00,52.0,48.6,29.93,West,281,6.0,6.0,88,0.00,,---,0.51,VWS V14.01,2013-02-09 02:07:00,
2013-02-08 21:12:00,51.8,48.4,29.93,WNW,284,6.0,7.0,88,0.00,,---,0.51,VWS V14.01,2013-02-09 02:12:00,
2013-02-08 21:17:00,51.8,48.4,29.93,WNW,284,7.0,7.0,88,0.00,,---,0.51,VWS V14.01,2013-02-09 02:17:00,
2013-02-08 21:22:00,51.8,48.4,29.93,WNW,288,6.0,7.0,88,0.00,,---,0.51,VWS V14.01,2013-02-09 02:22:00,
2013-02-08 21:27:00,51.8,48.4,29.93,West,281,6.0,8.0,88,0.00,,---,0.51,VWS V14.01,2013-02-09 02:27:00,
2013-02-08 21:32:00,51.7,48.3,29.94,WNW,288,6.0,9.0,88,0.00,,---,0.51,VWS V14.01,2013-02-09 02:32:00,
2013-02-08 21:37:00,51.8,48.4,29.94,WNW,294,6.0,9.0,88,0.00,,---,0.51,VWS V14.01,2013-02-09 02:37:00,
2013-02-08 21:42:00,51.7,48.3,29.94,WNW,293,6.0,9.0,88,0.00,,---,0.51,VWS V14.01,2013-02-09 02:42:00,
2013-02-08 21:47:00,51.9,48.5,29.94,WNW,297,6.0,12.0,88,0.00,,---,0.51,VWS V14.01,2013-02-09 02:47:00,
2013-02-08 21:52:00,51.9,48.2,29.95,WNW,295,9.0,12.0,87,0.00,,---,0.51,VWS V14.01,2013-02-09 02:52:00,
2013-02-08 21:57:00,51.9,48.2,29.95,WNW,298,11.0,12.0,87,0.00,,---,0.51,VWS V14.01,2013-02-09 02:57:00,
2013-02-08 22:02:00,52.0,48.3,29.94,WNW,294,12.0,13.0,87,0.00,,---,0.51,VWS V14.01,2013-02-09 03:02:00,
2013-02-08 22:08:00,52.3,48.2,29.95,WNW,302,11.0,14.0,86,0.00,,---,0.51,VWS V14.01,2013-02-09 03:08:00,
2013-02-08 22:13:00,52.8,47.8,29.95,NW,308,12.0,14.0,83,0.00,,---,0.51,VWS V14.01,2013-02-09 03:13:00,
2013-02-08 22:18:00,52.8,47.8,29.95,WNW,301,12.0,14.0,83,0.00,,---,0.51,VWS V14.01,2013-02-09 03:18:00,
2013-02-08 22:23:00,52.7,47.7,29.95,NW,306,10.0,14.0,83,0.00,,---,0.51,VWS V14.01,2013-02-09 03:23:00,
2013-02-08 22:28:00,52.8,47.5,29.95,NW,304,12.0,12.0,82,0.00,,---,0.51,VWS V14.01,2013-02-09 03:28:00,
2013-02-08 22:33:00,52.8,47.5,29.95,NW,314,11.0,13.0,82,0.00,,---,0.51,VWS V14.01,2013-02-09 03:33:00,
2013-02-08 22:38:00,53.4,46.7,29.96,NW,319,22.0,30.0,78,0.00,,---,0.51,VWS V14.01,2013-02-09 03:38:00,
2013-02-08 22:43:00,53.3,45.9,29.96,NNW,332,18.0,30.0,76,0.00,,---,0.51,VWS V14.01,2013-02-09 03:43:00,
2013-02-08 22:48:00,53.1,45.8,29.96,NNW,332,15.0,30.0,76,0.00,,---,0.51,VWS V14.01,2013-02-09 03:48:00,
2013-02-08 22:53:00,52.8,45.5,29.96,NNW,333,16.0,30.0,76,0.00,,---,0.51,VWS V14.01,2013-02-09 03:53:00,
2013-02-08 22:58:00,52.4,45.4,29.97,NW,322,15.0,15.0,77,0.00,,---,0.51,VWS V14.01,2013-02-09 03:58:00,
2013-02-08 23:03:00,52.1,45.1,29.97,NNW,343,14.0,17.0,77,0.00,,---,0.51,VWS V14.01,2013-02-09 04:03:00,
2013-02-08 23:08:00,51.8,44.8,29.98,NW,315,15.0,21.0,77,0.00,,---,0.51,VWS V14.01,2013-02-09 04:08:00,
2013-02-08 23:13:00,51.6,44.6,29.98,NW,322,14.0,21.0,77,0.00,,---,0.51,VWS V14.01,2013-02-09 04:13:00,
2013-02-08 23:18:00,51.4,44.4,29.98,NNW,346,19.0,21.0,77,0.00,,---,0.51,VWS V14.01,2013-02-09 04:18:00,
2013-02-08 23:24:00,51.2,44.2,29.98,NNW,342,15.0,23.0,77,0.00,,---,0.51,VWS V14.01,2013-02-09 04:24:00,
2013-02-08 23:29:00,51.0,44.4,29.99,North,350,13.0,15.0,78,0.00,,---,0.51,VWS V14.01,2013-02-09 04:29:00,
2013-02-08 23:34:00,50.7,44.1,29.99,NNW,343,11.0,17.0,78,0.00,,---,0.51,VWS V14.01,2013-02-09 04:34:00,
2013-02-08 23:39:00,50.4,43.8,29.99,NNW,338,15.0,17.0,78,0.00,,---,0.51,VWS V14.01,2013-02-09 04:39:00,
2013-02-08 23:44:00,50.2,44.0,29.99,NNW,344,13.0,17.0,79,0.00,,---,0.51,VWS V14.01,2013-02-09 04:44:00,
2013-02-08 23:49:00,49.9,43.7,29.99,NNW,346,14.0,17.0,79,0.00,,---,0.51,VWS V14.01,2013-02-09 04:49:00,
2013-02-08 23:54:00,49.7,43.1,30.00,North,349,16.0,21.0,78,0.00,,---,0.51,VWS V14.01,2013-02-09 04:54:00,
2013-02-08 23:59:00,49.5,42.9,30.00,North,355,20.0,22.0,78,0.00,,---,0.00,VWS V14.01,2013-02-09 04:59:00,